Home   Weather   Choloma   Past weeks

Flag for Honduras Past Weather in Choloma, Honduras — Yesterday and Last 2 Weeks

Now
88 °F

Partly sunny.


Feels Like: 96 °F
Forecast: 76 / 88 °F
Wind: 13 mph from South

Location: La Mesa San Pedro Sula

Current Time: Apr 28, 2017 at 6:22:41 am

Latest Report: Apr 28, 2017 at 6:00 am


Visibility: N/A

Pressure: 29.77 "Hg

Humidity: 62%

Dew Point: 73 °F

Location of CholomaLocation

Past Weather in Choloma — Graph

°F

Choloma Temperature Yesterday

Maximum temperature yesterday: 104 °F (at 1:00 pm)
Minimum temperature yesterday: 81 °F (at 12:00 am)
Average temperature yesterday: 91 °F

High & Low Weather Summary for the Past Weeks

 TemperatureHumidityPressure
High104 °F (Apr 26, 2:00 pm)100% (Apr 13, 5:00 am)30.01 "Hg (Apr 13, 5:00 am)
Low70 °F (Apr 13, 5:00 am)29% (Apr 27, 2:00 pm)29.59 "Hg (Apr 26, 3:00 pm)
Average82 °F80%29.86 "Hg
* Reported Apr 13 5:00 am — Apr 28 5:00 am, Choloma, Weather by CustomWeather, © 2017

Note: Actual official high and low records may vary slightly from our data, if they occured in-between our weather recording intervals... More about our weather records

Advertising

Choloma Weather History for the Previous 24 Hours

Scroll right to see more
 ConditionsComfort  
Time TempWeatherWind HumidityBarometerVisibility
5:00 am
Fri, Apr 28
82 °FPassing clouds.No wind94%29.71 "HgN/A
4:00 am82 °FPassing clouds.7 mph89%29.77 "HgN/A
3:00 am82 °FPassing clouds.2 mph89%29.77 "HgN/A
2:00 am81 °FPassing clouds.No wind94%29.77 "HgN/A
1:00 am81 °FPassing clouds.5 mph100%29.77 "HgN/A
12:00 am82 °FPassing clouds.2 mph94%29.77 "HgN/A
11:00 pm
Thu, Apr 27
84 °FPassing clouds.3 mph89%29.77 "HgN/A
10:00 pm84 °FPassing clouds.2 mph89%29.74 "HgN/A
9:00 pm84 °FPassing clouds.3 mph89%29.71 "HgN/A
8:00 pm84 °FPassing clouds.10 mph94%29.71 "HgN/A
7:00 pm86 °FPassing clouds.12 mph89%29.68 "HgN/A
6:00 pm91 °FSunny.15 mph67%29.65 "HgN/A
5:00 pm93 °FSunny.17 mph59%29.62 "HgN/A
4:00 pm97 °FSunny.18 mph53%29.62 "HgN/A
3:00 pm100 °FSunny.18 mph47%29.62 "HgN/A
2:00 pm104 °FSunny.8 mph29%29.62 "HgN/A
1:00 pm104 °FSunny.No wind31%29.65 "HgN/A
12:00 pm100 °FSunny.No wind37%29.71 "HgN/A
11:00 am99 °FSunny.10 mph39%29.74 "HgN/A
10:00 am95 °FSunny.9 mph47%29.74 "HgN/A
9:00 am91 °FSunny.12 mph52%29.77 "HgN/A
8:00 am90 °FSunny.12 mph55%29.77 "HgN/A
7:00 am88 °FSunny.10 mph59%29.77 "HgN/A
6:00 am86 °FSunny.9 mph62%29.74 "HgN/A
Weather by CustomWeather, © 2017

See weather overviewHow to use our weather pages